Location: Mizzole
(45.4833°N, 11.0500°E)
Time: 20:13:19
(UTC+00:00)

USA 238 - Pass Details

Date: 21 October 2019
Orbit: 1026 x 1186 km, 63.4° (Epoch: 11 November)

Event Time Altitude Azimuth Distance (km) Brightness Sun altitude
Rises 17:07:54 0° 196° (SSW) 3,764 6.9 -9.0°
Reaches altitude 10° 17:10:34 10° 191° (S) 2,824 6.1 -9.4°
Maximum altitude 17:16:54 49° 118° (ESE) 1,335 3.9 -10.5°
Drops below altitude 10° 17:23:27 10° 47° (NE) 2,920 5.5 -11.7°
Enters shadow 17:25:11 - 43° (NE) 3,529 6.0 -12.0°
